Location: *
(2.5500°S, 65.9667°W)
Time: 06:19:03
(UTC+00:00)

Tiros 1 despin weight - Pass Details

Date: 18 April 2024
Orbit: 578 x 621 km, 48.2° (Epoch: 25 May)

Event Time Altitude Azimuth Distance (km) Brightness Sun altitude
Rises 03:42:22 0° 300° (WNW) 2,876 - -76.8°
Reaches altitude 10° 03:44:57 10° 288° (WNW) 1,968 - -77.3°
Maximum altitude 03:48:46 27° 230° (SW) 1,188 - -78.0°
Drops below altitude 10° 03:52:34 10° 172° (S) 1,955 - -78.6°
Sets 03:55:09 0° 160° (SSE) 2,852 - -79.1°
